Terminal Aerodrome Forecast
Issued by NWS

Home | Current Version | Previous Version | Text Only | Print | Product List | Glossary On
Versions: 1 2 3 4 5 6 7 8 9 10 11 12 13 14 15 16 17 18 19 20 21
000
FTAK31 PANC 192333
TAFADQ
TAF
PADQ 192333Z 2000/2024 02022G29KT 6SM -RA BR SCT008 OVC015
     FM200600 02015G22KT P6SM -RA SCT009 OVC014
     FM201200 01014G20KT P6SM -RA SCT015 OVC025
     FM201500 35015KT P6SM SCT025 BKN035=

USA.gov is the U.S. government's official web portal to all federal, state and local government web resources and services.